Year,Month,Day,Hour,Minute,Value (Times are PST for temperature in C)
2017,08,23,00,00,17.90
2017,08,23,00,01,17.90
2017,08,23,00,02,17.90
2017,08,23,00,03,17.90
2017,08,23,00,04,17.90
2017,08,23,00,05,17.90
2017,08,23,00,06,17.90
2017,08,23,00,07,17.90
2017,08,23,00,08,17.90
2017,08,23,00,09,17.90
2017,08,23,00,10,17.90
2017,08,23,00,11,17.90
2017,08,23,00,12,17.90
2017,08,23,00,13,17.90
2017,08,23,00,14,17.90
2017,08,23,00,15,17.90
2017,08,23,00,16,17.90
2017,08,23,00,17,17.90
2017,08,23,00,18,17.90
2017,08,23,00,19,17.80
2017,08,23,00,20,17.80
2017,08,23,00,21,17.80
2017,08,23,00,22,17.80
2017,08,23,00,23,17.70
2017,08,23,00,24,17.70
2017,08,23,00,25,17.70
2017,08,23,00,26,17.70
2017,08,23,00,27,17.70
2017,08,23,00,28,17.70
2017,08,23,00,29,17.70
2017,08,23,00,30,17.70
2017,08,23,00,31,17.70
2017,08,23,00,32,17.70
2017,08,23,00,33,17.70
2017,08,23,00,34,17.60
2017,08,23,00,35,17.60
2017,08,23,00,36,17.60
2017,08,23,00,37,17.60
2017,08,23,00,38,17.60
2017,08,23,00,39,17.60
2017,08,23,00,40,17.60
2017,08,23,00,41,17.50
2017,08,23,00,42,17.50
2017,08,23,00,43,17.50
2017,08,23,00,44,17.50
2017,08,23,00,45,17.50
2017,08,23,00,46,17.40
2017,08,23,00,47,17.40
2017,08,23,00,48,17.40
2017,08,23,00,49,17.40
2017,08,23,00,50,17.40
2017,08,23,00,51,17.40
2017,08,23,00,52,17.40
2017,08,23,00,53,17.40
2017,08,23,00,54,17.40
2017,08,23,00,55,17.40
2017,08,23,00,56,17.40
2017,08,23,00,57,17.40
2017,08,23,00,58,17.40
2017,08,23,00,59,17.40
2017,08,23,01,00,17.40
2017,08,23,01,01,17.40
2017,08,23,01,02,17.50
2017,08,23,01,03,17.50
2017,08,23,01,04,17.50
2017,08,23,01,05,17.50
2017,08,23,01,06,17.50
2017,08,23,01,07,17.60
2017,08,23,01,08,17.50
2017,08,23,01,09,17.50
2017,08,23,01,10,17.50
2017,08,23,01,11,17.50
2017,08,23,01,12,17.50
2017,08,23,01,13,17.50
2017,08,23,01,14,17.40
2017,08,23,01,15,17.40
2017,08,23,01,16,17.40
2017,08,23,01,17,17.40
2017,08,23,01,18,17.40
2017,08,23,01,19,17.40
2017,08,23,01,20,17.30
2017,08,23,01,21,17.30
2017,08,23,01,22,17.30
2017,08,23,01,23,17.30
2017,08,23,01,24,17.30
2017,08,23,01,25,17.30
2017,08,23,01,26,17.30
2017,08,23,01,27,17.20
2017,08,23,01,28,17.20
2017,08,23,01,29,17.20
2017,08,23,01,30,17.20
2017,08,23,01,31,17.20
2017,08,23,01,32,17.10
2017,08,23,01,33,17.10
2017,08,23,01,34,17.10
2017,08,23,01,35,17.10
2017,08,23,01,36,17.20
2017,08,23,01,37,17.20
2017,08,23,01,38,17.20
2017,08,23,01,39,17.20
2017,08,23,01,40,17.20
2017,08,23,01,41,17.20
2017,08,23,01,42,17.20
2017,08,23,01,43,17.20
2017,08,23,01,44,17.20
2017,08,23,01,45,17.20
2017,08,23,01,46,17.20
2017,08,23,01,47,17.20
2017,08,23,01,48,17.20
2017,08,23,01,49,17.20
2017,08,23,01,50,17.20
2017,08,23,01,51,17.20
2017,08,23,01,52,17.20
2017,08,23,01,53,17.20
2017,08,23,01,54,17.20
2017,08,23,01,55,17.20
2017,08,23,01,56,17.10
2017,08,23,01,57,17.10
2017,08,23,01,58,17.10
2017,08,23,01,59,17.10
2017,08,23,02,00,17.10
2017,08,23,02,01,17.10
2017,08,23,02,02,17.10
2017,08,23,02,03,17.00
2017,08,23,02,04,17.00
2017,08,23,02,05,17.00
2017,08,23,02,06,16.90
2017,08,23,02,07,16.90
2017,08,23,02,08,16.90
2017,08,23,02,09,16.90
2017,08,23,02,10,16.90
2017,08,23,02,11,16.80
2017,08,23,02,12,16.80
2017,08,23,02,13,16.80
2017,08,23,02,14,16.80
2017,08,23,02,15,16.80
2017,08,23,02,16,16.80
2017,08,23,02,17,16.70
2017,08,23,02,18,16.70
2017,08,23,02,19,16.70
2017,08,23,02,20,16.70
2017,08,23,02,21,16.60
2017,08,23,02,22,16.60
2017,08,23,02,23,16.60
2017,08,23,02,24,16.60
2017,08,23,02,25,16.60
2017,08,23,02,26,16.60
2017,08,23,02,27,16.60
2017,08,23,02,28,16.50
2017,08,23,02,29,16.50
2017,08,23,02,30,16.50
2017,08,23,02,31,16.50
2017,08,23,02,32,16.50
2017,08,23,02,33,16.40
2017,08,23,02,34,16.40
2017,08,23,02,35,16.40
2017,08,23,02,36,16.40
2017,08,23,02,37,16.40
2017,08,23,02,38,16.40
2017,08,23,02,39,16.40
2017,08,23,02,40,16.30
2017,08,23,02,41,16.30
2017,08,23,02,42,16.30
2017,08,23,02,43,16.30
2017,08,23,02,44,16.30
2017,08,23,02,45,16.30
2017,08,23,02,46,16.30
2017,08,23,02,47,16.30
2017,08,23,02,48,16.30
2017,08,23,02,49,16.20
2017,08,23,02,50,16.20
2017,08,23,02,51,16.20
2017,08,23,02,52,16.20
2017,08,23,02,53,16.20
2017,08,23,02,54,16.20
2017,08,23,02,55,16.10
2017,08,23,02,56,16.10
2017,08,23,02,57,16.10
2017,08,23,02,58,16.00
2017,08,23,02,59,16.00
2017,08,23,03,00,15.90
2017,08,23,03,01,15.90
2017,08,23,03,02,15.90
2017,08,23,03,03,15.80
2017,08,23,03,04,15.80
2017,08,23,03,05,15.80
2017,08,23,03,06,15.80
2017,08,23,03,07,15.80
2017,08,23,03,08,15.80
2017,08,23,03,09,15.80
2017,08,23,03,10,15.80
2017,08,23,03,11,15.70
2017,08,23,03,12,15.70
2017,08,23,03,13,15.70
2017,08,23,03,14,15.70
2017,08,23,03,15,15.70
2017,08,23,03,16,15.60
2017,08,23,03,17,15.60
2017,08,23,03,18,15.60
2017,08,23,03,19,15.60
2017,08,23,03,20,15.50
2017,08,23,03,21,15.50
2017,08,23,03,22,15.50
2017,08,23,03,23,15.40
2017,08,23,03,24,15.40
2017,08,23,03,25,15.40
2017,08,23,03,26,15.40
2017,08,23,03,27,15.40
2017,08,23,03,28,15.30
2017,08,23,03,29,15.30
2017,08,23,03,30,15.30
2017,08,23,03,31,15.30
2017,08,23,03,32,15.30
2017,08,23,03,33,15.20
2017,08,23,03,34,15.20
2017,08,23,03,35,15.20
2017,08,23,03,36,15.20
2017,08,23,03,37,15.20
2017,08,23,03,38,15.10
2017,08,23,03,39,15.00
2017,08,23,03,40,15.00
2017,08,23,03,41,15.00
2017,08,23,03,42,15.00
2017,08,23,03,43,15.00
2017,08,23,03,44,15.00
2017,08,23,03,45,15.00
2017,08,23,03,46,15.00
2017,08,23,03,47,15.00
2017,08,23,03,48,15.00
2017,08,23,03,49,15.00
2017,08,23,03,50,15.00
2017,08,23,03,51,15.00
2017,08,23,03,52,15.00
2017,08,23,03,53,15.00
2017,08,23,03,54,15.00
2017,08,23,03,55,15.00
2017,08,23,03,56,14.90
2017,08,23,03,57,14.90
2017,08,23,03,58,14.90
2017,08,23,03,59,14.90
2017,08,23,04,00,14.90
2017,08,23,04,01,14.80
2017,08,23,04,02,14.80
2017,08,23,04,03,14.80
2017,08,23,04,04,14.80
2017,08,23,04,05,14.80
2017,08,23,04,06,14.80
2017,08,23,04,07,14.80
2017,08,23,04,08,14.80
2017,08,23,04,09,14.80
2017,08,23,04,10,14.80
2017,08,23,04,11,14.80
2017,08,23,04,12,14.70
2017,08,23,04,13,14.70
2017,08,23,04,14,14.70
2017,08,23,04,15,14.70
2017,08,23,04,16,14.70
2017,08,23,04,17,14.70
2017,08,23,04,18,14.60
2017,08,23,04,19,14.70
2017,08,23,04,20,14.70
2017,08,23,04,21,14.60
2017,08,23,04,22,14.60
2017,08,23,04,23,14.60
2017,08,23,04,24,14.60
2017,08,23,04,25,14.60
2017,08,23,04,26,14.60
2017,08,23,04,27,14.60
2017,08,23,04,28,14.60
2017,08,23,04,29,14.60
2017,08,23,04,30,14.60
2017,08,23,04,31,14.60
2017,08,23,04,32,14.60
2017,08,23,04,33,14.50
2017,08,23,04,34,14.50
2017,08,23,04,35,14.50
2017,08,23,04,36,14.40
2017,08,23,04,37,14.40
2017,08,23,04,38,14.40
2017,08,23,04,39,14.40
2017,08,23,04,40,14.30
2017,08,23,04,41,14.30
2017,08,23,04,42,14.30
2017,08,23,04,43,14.30
2017,08,23,04,44,14.30
2017,08,23,04,45,14.20
2017,08,23,04,46,14.20
2017,08,23,04,47,14.20
2017,08,23,04,48,14.10
2017,08,23,04,49,14.10
2017,08,23,04,50,14.10
2017,08,23,04,51,14.10
2017,08,23,04,52,14.10
2017,08,23,04,53,14.10
2017,08,23,04,54,14.10
2017,08,23,04,55,14.00
2017,08,23,04,56,14.00
2017,08,23,04,57,14.00
2017,08,23,04,58,14.00
2017,08,23,04,59,14.00
2017,08,23,05,00,14.00
2017,08,23,05,01,14.00
2017,08,23,05,02,14.00
2017,08,23,05,03,14.00
2017,08,23,05,04,14.00
2017,08,23,05,05,14.00
2017,08,23,05,06,14.00
2017,08,23,05,07,14.00
2017,08,23,05,08,14.00
2017,08,23,05,09,13.90
2017,08,23,05,10,13.90
2017,08,23,05,11,13.90
2017,08,23,05,12,13.90
2017,08,23,05,13,13.90
2017,08,23,05,14,13.90
2017,08,23,05,15,13.90
2017,08,23,05,16,13.90
2017,08,23,05,17,13.90
2017,08,23,05,18,13.90
2017,08,23,05,19,13.90
2017,08,23,05,20,13.90
2017,08,23,05,21,13.90
2017,08,23,05,22,13.90
2017,08,23,05,23,13.90
2017,08,23,05,24,13.90
2017,08,23,05,25,13.90
2017,08,23,05,26,13.90
2017,08,23,05,27,13.90
2017,08,23,05,28,13.90
2017,08,23,05,29,13.80
2017,08,23,05,30,13.80
2017,08,23,05,31,13.80
2017,08,23,05,32,13.80
2017,08,23,05,33,13.80
2017,08,23,05,34,13.80
2017,08,23,05,35,13.80
2017,08,23,05,36,13.80
2017,08,23,05,37,13.70
2017,08,23,05,38,13.70
2017,08,23,05,39,13.70
2017,08,23,05,40,13.70
2017,08,23,05,41,13.70
2017,08,23,05,42,13.70
2017,08,23,05,43,13.70
2017,08,23,05,44,13.70
2017,08,23,05,45,13.60
2017,08,23,05,46,13.60
2017,08,23,05,47,13.60
2017,08,23,05,48,13.60
2017,08,23,05,49,13.60
2017,08,23,05,50,13.60
2017,08,23,05,51,13.60
2017,08,23,05,52,13.60
2017,08,23,05,53,13.60
2017,08,23,05,54,13.60
2017,08,23,05,55,13.60
2017,08,23,05,56,13.60
2017,08,23,05,57,13.60
2017,08,23,05,58,13.60
2017,08,23,05,59,13.60
2017,08,23,06,00,13.60
2017,08,23,06,01,13.50
2017,08,23,06,02,13.50
2017,08,23,06,03,13.50
2017,08,23,06,04,13.40
2017,08,23,06,05,13.40
2017,08,23,06,06,13.40
2017,08,23,06,07,13.40
2017,08,23,06,08,13.40
2017,08,23,06,09,13.40
2017,08,23,06,10,13.40
2017,08,23,06,11,13.40
2017,08,23,06,12,13.40
2017,08,23,06,13,13.40
2017,08,23,06,14,13.40
2017,08,23,06,15,13.30
2017,08,23,06,16,13.40
2017,08,23,06,17,13.30
2017,08,23,06,18,13.30
2017,08,23,06,19,13.30
2017,08,23,06,20,13.30
2017,08,23,06,21,13.30
2017,08,23,06,22,13.30
2017,08,23,06,23,13.30
2017,08,23,06,24,13.30
2017,08,23,06,25,13.30
2017,08,23,06,26,13.30
2017,08,23,06,27,13.20
2017,08,23,06,28,13.20
2017,08,23,06,29,13.20
2017,08,23,06,30,13.20
2017,08,23,06,31,13.20
2017,08,23,06,32,13.20
2017,08,23,06,33,13.30
2017,08,23,06,34,13.20
2017,08,23,06,35,13.20
2017,08,23,06,36,13.20
2017,08,23,06,37,13.20
2017,08,23,06,38,13.20
2017,08,23,06,39,13.20
2017,08,23,06,40,13.20
2017,08,23,06,41,13.20
2017,08,23,06,42,13.20
2017,08,23,06,43,13.20
2017,08,23,06,44,13.20
2017,08,23,06,45,13.20
2017,08,23,06,46,13.20
2017,08,23,06,47,13.20
2017,08,23,06,48,13.20
2017,08,23,06,49,13.20
2017,08,23,06,50,13.20
2017,08,23,06,51,13.20
2017,08,23,06,52,13.20
2017,08,23,06,53,13.10
2017,08,23,06,54,13.10
2017,08,23,06,55,13.10
2017,08,23,06,56,13.10
2017,08,23,06,57,13.10
2017,08,23,06,58,13.10
2017,08,23,06,59,13.10
2017,08,23,07,00,13.10
2017,08,23,07,01,13.10
2017,08,23,07,02,13.10
2017,08,23,07,03,13.10
2017,08,23,07,04,13.10
2017,08,23,07,05,13.10
2017,08,23,07,06,13.10
2017,08,23,07,07,13.00
2017,08,23,07,08,13.00
2017,08,23,07,09,13.00
2017,08,23,07,10,13.00
2017,08,23,07,11,13.10
2017,08,23,07,12,13.10
2017,08,23,07,13,13.10
2017,08,23,07,14,13.10
2017,08,23,07,15,13.10
2017,08,23,07,16,13.20
2017,08,23,07,17,13.20
2017,08,23,07,18,13.30
2017,08,23,07,19,13.30
2017,08,23,07,20,13.30
2017,08,23,07,21,13.40
2017,08,23,07,22,13.40
2017,08,23,07,23,13.40
2017,08,23,07,24,13.40
2017,08,23,07,25,13.50
2017,08,23,07,26,13.50
2017,08,23,07,27,13.50
2017,08,23,07,28,13.50
2017,08,23,07,29,13.60
2017,08,23,07,30,13.60
2017,08,23,07,31,13.60
2017,08,23,07,32,13.60
2017,08,23,07,33,13.70
2017,08,23,07,34,13.70
2017,08,23,07,35,13.80
2017,08,23,07,36,13.90
2017,08,23,07,37,14.00
2017,08,23,07,38,14.10
2017,08,23,07,39,14.20
2017,08,23,07,40,14.20
2017,08,23,07,41,14.30
2017,08,23,07,42,14.40
2017,08,23,07,43,14.50
2017,08,23,07,44,14.50
2017,08,23,07,45,14.60
2017,08,23,07,46,14.70
2017,08,23,07,47,14.70
2017,08,23,07,48,14.80
2017,08,23,07,49,14.80
2017,08,23,07,50,15.00
2017,08,23,07,51,15.00
2017,08,23,07,52,15.00
2017,08,23,07,53,15.00
2017,08,23,07,54,15.00
2017,08,23,07,55,15.10
2017,08,23,07,56,15.20
2017,08,23,07,57,15.30
2017,08,23,07,58,15.30
2017,08,23,07,59,15.40
2017,08,23,08,00,15.50
2017,08,23,08,01,15.60
2017,08,23,08,02,15.70
2017,08,23,08,03,15.80
2017,08,23,08,04,15.90
2017,08,23,08,05,16.10
2017,08,23,08,06,16.10
2017,08,23,08,07,16.20
2017,08,23,08,08,16.30
2017,08,23,08,09,16.40
2017,08,23,08,10,16.40
2017,08,23,08,11,16.50
2017,08,23,08,12,16.60
2017,08,23,08,13,16.60
2017,08,23,08,14,16.60
2017,08,23,08,15,16.70
2017,08,23,08,16,16.70
2017,08,23,08,17,16.70
2017,08,23,08,18,16.70
2017,08,23,08,19,16.80
2017,08,23,08,20,16.80
2017,08,23,08,21,16.80
2017,08,23,08,22,16.90
2017,08,23,08,23,16.90
2017,08,23,08,24,16.90
2017,08,23,08,25,17.00
2017,08,23,08,26,17.00
2017,08,23,08,27,17.10
2017,08,23,08,28,17.10
2017,08,23,08,29,17.20
2017,08,23,08,30,17.20
2017,08,23,08,31,17.30
2017,08,23,08,32,17.30
2017,08,23,08,33,17.30
2017,08,23,08,34,17.30
2017,08,23,08,35,17.40
2017,08,23,08,36,17.40
2017,08,23,08,37,17.50
2017,08,23,08,38,17.50
2017,08,23,08,39,17.60
2017,08,23,08,40,17.60
2017,08,23,08,41,17.70
2017,08,23,08,42,17.70
2017,08,23,08,43,17.80
2017,08,23,08,44,17.80
2017,08,23,08,45,17.80
2017,08,23,08,46,17.90
2017,08,23,08,47,17.90
2017,08,23,08,48,18.00
2017,08,23,08,49,18.10
2017,08,23,08,50,18.10
2017,08,23,08,51,18.20
2017,08,23,08,52,18.20
2017,08,23,08,53,18.20
2017,08,23,08,54,18.20
2017,08,23,08,55,18.20
2017,08,23,08,56,18.20
2017,08,23,08,57,18.10
2017,08,23,08,58,18.20
2017,08,23,08,59,18.20
2017,08,23,09,00,18.20
2017,08,23,09,01,18.20
2017,08,23,09,02,18.20
2017,08,23,09,03,18.20
2017,08,23,09,04,18.20
2017,08,23,09,05,18.20
2017,08,23,09,06,18.20
2017,08,23,09,07,18.20
2017,08,23,09,08,18.20
2017,08,23,09,09,18.30
2017,08,23,09,10,18.30
2017,08,23,09,11,18.30
2017,08,23,09,12,18.30
2017,08,23,09,13,18.40
2017,08,23,09,14,18.40
2017,08,23,09,15,18.40
2017,08,23,09,16,18.40
2017,08,23,09,17,18.50
2017,08,23,09,18,18.60
2017,08,23,09,19,18.60
2017,08,23,09,20,18.70
2017,08,23,09,21,18.80
2017,08,23,09,22,18.90
2017,08,23,09,23,19.00
2017,08,23,09,24,19.20
2017,08,23,09,25,19.30
2017,08,23,09,26,19.40
2017,08,23,09,27,19.50
2017,08,23,09,28,19.60
2017,08,23,09,29,19.70
2017,08,23,09,30,19.80
2017,08,23,09,31,19.90
2017,08,23,09,32,19.90
2017,08,23,09,33,19.90
2017,08,23,09,34,19.90
2017,08,23,09,35,20.00
2017,08,23,09,36,20.10
2017,08,23,09,37,20.20
2017,08,23,09,38,20.40
2017,08,23,09,39,20.50
2017,08,23,09,40,20.60
2017,08,23,09,41,20.60
2017,08,23,09,42,20.70
2017,08,23,09,43,20.80
2017,08,23,09,44,20.80
2017,08,23,09,45,20.80
2017,08,23,09,46,20.90
2017,08,23,09,47,20.90
2017,08,23,09,48,20.90
2017,08,23,09,49,20.90
2017,08,23,09,50,20.90
2017,08,23,09,51,20.90
2017,08,23,09,52,21.00
2017,08,23,09,53,21.00
2017,08,23,09,54,21.10
2017,08,23,09,55,21.20
2017,08,23,09,56,21.20
2017,08,23,09,57,21.30
2017,08,23,09,58,21.40
2017,08,23,09,59,21.40
2017,08,23,10,00,21.50
2017,08,23,10,01,21.60
2017,08,23,10,02,21.70
2017,08,23,10,03,21.70
2017,08,23,10,04,21.80
2017,08,23,10,05,21.80
2017,08,23,10,06,21.80
2017,08,23,10,07,21.90
2017,08,23,10,08,22.00
2017,08,23,10,09,22.00
2017,08,23,10,10,22.00
2017,08,23,10,11,21.90
2017,08,23,10,12,21.90
2017,08,23,10,13,21.90
2017,08,23,10,14,21.80
2017,08,23,10,15,21.80
2017,08,23,10,16,21.80
2017,08,23,10,17,21.60
2017,08,23,10,18,21.30
2017,08,23,10,19,21.20
2017,08,23,10,20,21.00
2017,08,23,10,21,20.80
2017,08,23,10,22,20.70
2017,08,23,10,23,20.50
2017,08,23,10,24,20.40
2017,08,23,10,25,20.20
2017,08,23,10,26,20.10
2017,08,23,10,27,20.00
2017,08,23,10,28,19.80
2017,08,23,10,29,19.70
2017,08,23,10,30,19.50
2017,08,23,10,31,19.40
2017,08,23,10,32,19.30
2017,08,23,10,33,19.30
2017,08,23,10,34,19.20
2017,08,23,10,35,19.10
2017,08,23,10,36,19.10
2017,08,23,10,37,19.10
2017,08,23,10,38,19.10
2017,08,23,10,39,19.10
2017,08,23,10,40,19.10
2017,08,23,10,41,19.10
2017,08,23,10,42,19.20
2017,08,23,10,43,19.20
2017,08,23,10,44,19.20
2017,08,23,10,45,19.10
2017,08,23,10,46,19.10
2017,08,23,10,47,19.10
2017,08,23,10,48,19.00
2017,08,23,10,49,19.00
2017,08,23,10,50,19.00
2017,08,23,10,51,19.00
2017,08,23,10,52,19.00
2017,08,23,10,53,19.00
2017,08,23,10,54,19.00
2017,08,23,10,55,19.00
2017,08,23,10,56,19.10
2017,08,23,10,57,19.10
2017,08,23,10,58,19.20
2017,08,23,10,59,19.20
2017,08,23,11,00,19.20
2017,08,23,11,01,19.20
2017,08,23,11,02,19.20
2017,08,23,11,03,19.30
2017,08,23,11,04,19.30
2017,08,23,11,05,19.30
2017,08,23,11,06,19.30
2017,08,23,11,07,19.40
2017,08,23,11,08,19.40
2017,08,23,11,09,19.40
2017,08,23,11,10,19.40
2017,08,23,11,11,19.50
2017,08,23,11,12,19.50
2017,08,23,11,13,19.60
2017,08,23,11,14,19.70
2017,08,23,11,15,19.70
2017,08,23,11,16,19.80
2017,08,23,11,17,19.80
2017,08,23,11,18,19.80
2017,08,23,11,19,19.80
2017,08,23,11,20,19.80
2017,08,23,11,21,19.90
2017,08,23,11,22,19.80
2017,08,23,11,23,19.80
2017,08,23,11,24,19.80
2017,08,23,11,25,19.80
2017,08,23,11,26,19.90
2017,08,23,11,27,19.90
2017,08,23,11,28,19.90
2017,08,23,11,29,19.90
2017,08,23,11,30,19.90
2017,08,23,11,31,20.00
2017,08,23,11,32,20.00
2017,08,23,11,33,20.00
2017,08,23,11,34,20.00
2017,08,23,11,35,20.00
2017,08,23,11,36,20.00
2017,08,23,11,37,20.10
2017,08,23,11,38,20.10
2017,08,23,11,39,20.20
2017,08,23,11,40,20.20
2017,08,23,11,41,20.30
2017,08,23,11,42,20.30
2017,08,23,11,43,20.40
2017,08,23,11,44,20.40
2017,08,23,11,45,20.50
2017,08,23,11,46,20.60
2017,08,23,11,47,20.60
2017,08,23,11,48,20.70
2017,08,23,11,49,20.70
2017,08,23,11,50,20.80
2017,08,23,11,51,20.80
2017,08,23,11,52,20.90
2017,08,23,11,53,20.90
2017,08,23,11,54,21.00
2017,08,23,11,55,21.00
2017,08,23,11,56,21.10
2017,08,23,11,57,21.20
2017,08,23,11,58,21.30
2017,08,23,11,59,21.40
2017,08,23,12,00,21.50
2017,08,23,12,01,21.60
2017,08,23,12,02,21.70
2017,08,23,12,03,21.80
2017,08,23,12,04,21.90
2017,08,23,12,05,22.00
2017,08,23,12,06,22.10
2017,08,23,12,07,22.10
2017,08,23,12,08,22.10
2017,08,23,12,09,22.20
2017,08,23,12,10,22.20
2017,08,23,12,11,22.10
2017,08,23,12,12,22.10
2017,08,23,12,13,22.10
2017,08,23,12,14,22.10
2017,08,23,12,15,22.10
2017,08,23,12,16,22.10
2017,08,23,12,17,22.10
2017,08,23,12,18,22.10
2017,08,23,12,19,22.10
2017,08,23,12,20,22.20
2017,08,23,12,21,22.20
2017,08,23,12,22,22.30
2017,08,23,12,23,22.30
2017,08,23,12,24,22.30
2017,08,23,12,25,22.30
2017,08,23,12,26,22.30
2017,08,23,12,27,22.30
2017,08,23,12,28,22.30
2017,08,23,12,29,22.30
2017,08,23,12,30,22.40
2017,08,23,12,31,22.40
2017,08,23,12,32,22.40
2017,08,23,12,33,22.50
2017,08,23,12,34,22.60
2017,08,23,12,35,22.70
2017,08,23,12,36,22.80
2017,08,23,12,37,22.90
2017,08,23,12,38,23.00
2017,08,23,12,39,23.10
2017,08,23,12,40,23.20
2017,08,23,12,41,23.30
2017,08,23,12,42,23.30
2017,08,23,12,43,23.30
2017,08,23,12,44,23.30
2017,08,23,12,45,23.30
2017,08,23,12,46,23.30
2017,08,23,12,47,23.30
2017,08,23,12,48,23.20
2017,08,23,12,49,23.10
2017,08,23,12,50,23.00
2017,08,23,12,51,23.00
2017,08,23,12,52,23.00
2017,08,23,12,53,23.00
2017,08,23,12,54,23.00
2017,08,23,12,55,23.10
2017,08,23,12,56,23.10
2017,08,23,12,57,23.10
2017,08,23,12,58,23.10
2017,08,23,12,59,23.20
2017,08,23,13,00,23.20
2017,08,23,13,01,23.20
2017,08,23,13,02,23.20
2017,08,23,13,03,23.20
2017,08,23,13,04,23.20
2017,08,23,13,05,23.10
2017,08,23,13,06,23.10
2017,08,23,13,07,23.10
2017,08,23,13,08,23.10
2017,08,23,13,09,23.20
2017,08,23,13,10,23.20
2017,08,23,13,11,23.20
2017,08,23,13,12,23.10
2017,08,23,13,13,23.00
2017,08,23,13,14,23.00
2017,08,23,13,15,22.90
2017,08,23,13,16,22.90
2017,08,23,13,17,22.90
2017,08,23,13,18,22.90
2017,08,23,13,19,22.90
2017,08,23,13,20,22.90
2017,08,23,13,21,22.90
2017,08,23,13,22,22.80
2017,08,23,13,23,22.80
2017,08,23,13,24,22.60
2017,08,23,13,25,22.60
2017,08,23,13,26,22.50
2017,08,23,13,27,22.40
2017,08,23,13,28,22.30
2017,08,23,13,29,22.30
2017,08,23,13,30,22.20
2017,08,23,13,31,22.10
2017,08,23,13,32,22.00
2017,08,23,13,33,21.90
2017,08,23,13,34,21.80
2017,08,23,13,35,21.80
2017,08,23,13,36,21.70
2017,08,23,13,37,21.70
2017,08,23,13,38,21.70
2017,08,23,13,39,21.80
2017,08,23,13,40,21.80
2017,08,23,13,41,21.80
2017,08,23,13,42,21.70
2017,08,23,13,43,21.70
2017,08,23,13,44,21.70
2017,08,23,13,45,21.80
2017,08,23,13,46,21.80
2017,08,23,13,47,21.80
2017,08,23,13,48,21.80
2017,08,23,13,49,21.80
2017,08,23,13,50,21.90
2017,08,23,13,51,21.90
2017,08,23,13,52,22.00
2017,08,23,13,53,22.00
2017,08,23,13,54,22.10
2017,08,23,13,55,22.10
2017,08,23,13,56,22.10
2017,08,23,13,57,22.10
2017,08,23,13,58,22.20
2017,08,23,13,59,22.20
2017,08,23,14,00,22.20
2017,08,23,14,01,22.30
2017,08,23,14,02,22.30
2017,08,23,14,03,22.40
2017,08,23,14,04,22.40
2017,08,23,14,05,22.50
2017,08,23,14,06,22.50
2017,08,23,14,07,22.50
2017,08,23,14,08,22.50
2017,08,23,14,09,22.60
2017,08,23,14,10,22.60
2017,08,23,14,11,22.70
2017,08,23,14,12,22.70
2017,08,23,14,13,22.80
2017,08,23,14,14,22.90
2017,08,23,14,15,23.00
2017,08,23,14,16,23.10
2017,08,23,14,17,23.20
2017,08,23,14,18,23.30
2017,08,23,14,19,23.30
2017,08,23,14,20,23.40
2017,08,23,14,21,23.40
2017,08,23,14,22,23.40
2017,08,23,14,23,23.50
2017,08,23,14,24,23.50
2017,08,23,14,25,23.60
2017,08,23,14,26,23.60
2017,08,23,14,27,23.60
2017,08,23,14,28,23.50
2017,08,23,14,29,23.50
2017,08,23,14,30,23.40
2017,08,23,14,31,23.40
2017,08,23,14,32,23.40
2017,08,23,14,33,23.40
2017,08,23,14,34,23.40
2017,08,23,14,35,23.40
2017,08,23,14,36,23.30
2017,08,23,14,37,23.40
2017,08,23,14,38,23.30
2017,08,23,14,39,23.30
2017,08,23,14,40,23.40
2017,08,23,14,41,23.40
2017,08,23,14,42,23.40
2017,08,23,14,43,23.40
2017,08,23,14,44,23.50
2017,08,23,14,45,23.60
2017,08,23,14,46,23.60
2017,08,23,14,47,23.60
2017,08,23,14,48,23.60
2017,08,23,14,49,23.60
2017,08,23,14,50,23.60
2017,08,23,14,51,23.60
2017,08,23,14,52,23.60
2017,08,23,14,53,23.60
2017,08,23,14,54,23.60
2017,08,23,14,55,23.60
2017,08,23,14,56,23.60
2017,08,23,14,57,23.70
2017,08,23,14,58,23.70
2017,08,23,14,59,23.70
2017,08,23,15,00,23.80
2017,08,23,15,01,23.70
2017,08,23,15,02,23.70
2017,08,23,15,03,23.70
2017,08,23,15,04,23.70
2017,08,23,15,05,23.70
2017,08,23,15,06,23.60
2017,08,23,15,07,23.60
2017,08,23,15,08,23.60
2017,08,23,15,09,23.60
2017,08,23,15,10,23.70
2017,08,23,15,11,23.70
2017,08,23,15,12,23.80
2017,08,23,15,13,23.90
2017,08,23,15,14,23.90
2017,08,23,15,15,24.00
2017,08,23,15,16,24.00
2017,08,23,15,17,24.00
2017,08,23,15,18,24.00
2017,08,23,15,19,23.90
2017,08,23,15,20,23.90
2017,08,23,15,21,23.90
2017,08,23,15,22,23.80
2017,08,23,15,23,23.80
2017,08,23,15,24,23.80
2017,08,23,15,25,23.80
2017,08,23,15,26,23.80
2017,08,23,15,27,23.80
2017,08,23,15,28,23.80
2017,08,23,15,29,23.90
2017,08,23,15,30,23.80
2017,08,23,15,31,23.80
2017,08,23,15,32,23.70
2017,08,23,15,33,23.70
2017,08,23,15,34,23.60
2017,08,23,15,35,23.50
2017,08,23,15,36,23.40
2017,08,23,15,37,23.20
2017,08,23,15,38,23.10
2017,08,23,15,39,23.00
2017,08,23,15,40,22.90
2017,08,23,15,41,22.90
2017,08,23,15,42,22.80
2017,08,23,15,43,22.70
2017,08,23,15,44,22.70
2017,08,23,15,45,22.60
2017,08,23,15,46,22.60
2017,08,23,15,47,22.60
2017,08,23,15,48,22.70
2017,08,23,15,49,22.70
2017,08,23,15,50,22.80
2017,08,23,15,51,22.80
2017,08,23,15,52,22.80
2017,08,23,15,53,22.80
2017,08,23,15,54,22.70
2017,08,23,15,55,22.80
2017,08,23,15,56,22.80
2017,08,23,15,57,22.80
2017,08,23,15,58,22.80
2017,08,23,15,59,22.80
2017,08,23,16,00,22.80
2017,08,23,16,01,22.80
2017,08,23,16,02,22.80
2017,08,23,16,03,22.90
2017,08,23,16,04,22.80
2017,08,23,16,05,22.80
2017,08,23,16,06,22.90
2017,08,23,16,07,22.90
2017,08,23,16,08,22.90
2017,08,23,16,09,23.00
2017,08,23,16,10,23.00
2017,08,23,16,11,23.00
2017,08,23,16,12,23.10
2017,08,23,16,13,23.00
2017,08,23,16,14,23.00
2017,08,23,16,15,22.90
2017,08,23,16,16,22.90
2017,08,23,16,17,22.90
2017,08,23,16,18,23.00
2017,08,23,16,19,23.10
2017,08,23,16,20,23.20
2017,08,23,16,21,23.20
2017,08,23,16,22,23.30
2017,08,23,16,23,23.30
2017,08,23,16,24,23.40
2017,08,23,16,25,23.50
2017,08,23,16,26,23.50
2017,08,23,16,27,23.60
2017,08,23,16,28,23.60
2017,08,23,16,29,23.60
2017,08,23,16,30,23.70
2017,08,23,16,31,23.70
2017,08,23,16,32,23.80
2017,08,23,16,33,23.80
2017,08,23,16,34,23.90
2017,08,23,16,35,24.00
2017,08,23,16,36,24.00
2017,08,23,16,37,24.00
2017,08,23,16,38,24.00
2017,08,23,16,39,23.90
2017,08,23,16,40,23.90
2017,08,23,16,41,23.90
2017,08,23,16,42,23.90
2017,08,23,16,43,23.90
2017,08,23,16,44,23.90
2017,08,23,16,45,23.90
2017,08,23,16,46,23.90
2017,08,23,16,47,23.90
2017,08,23,16,48,23.90
2017,08,23,16,49,23.90
2017,08,23,16,50,23.90
2017,08,23,16,51,23.80
2017,08,23,16,52,23.80
2017,08,23,16,53,23.80
2017,08,23,16,54,23.80
2017,08,23,16,55,23.80
2017,08,23,16,56,23.90
2017,08,23,16,57,23.90
2017,08,23,16,58,23.90
2017,08,23,16,59,23.90
2017,08,23,17,00,23.80
2017,08,23,17,01,23.70
2017,08,23,17,02,23.70
2017,08,23,17,03,23.70
2017,08,23,17,04,23.60
2017,08,23,17,05,23.60
2017,08,23,17,06,23.60
2017,08,23,17,07,23.60
2017,08,23,17,08,23.70
2017,08,23,17,09,23.70
2017,08,23,17,10,23.70
2017,08,23,17,11,23.80
2017,08,23,17,12,23.80
2017,08,23,17,13,23.80
2017,08,23,17,14,23.80
2017,08,23,17,15,23.80
2017,08,23,17,16,23.70
2017,08,23,17,17,23.60
2017,08,23,17,18,23.40
2017,08,23,17,19,23.30